Tracking 31027 objects as of 19-Jul-2025
HD Live streaming from Space Station
objects crossing your sky now

SL-8 R/B

Track SL-8 R/B now!
10-day predictions


NORAD ID: 15752
Int'l Code: 1985-041B
Perigee: 977.4 km
Apogee: 1,012.4 km
Inclination: 83.0 °
Period: 104.9 minutes
Semi major axis: 7365 km
RCS: 4.952 m2 (large)
Launch date: May 30, 1985
Source: Commonwealth of Independent States (former USSR) (CIS)
Launch site: PLESETSK MISSILE AND SPACE COMPLEX (PKMTR)

Note: This is a ROCKET BODY
Your satellite tracking list
COSMOS 2251 DEB
Track 1 satellite(s)




NASA's NSSDC Master Catalog

Two Line Element Set (TLE):
1 15752U 85041B   25199.53996331  .00000052  00000-0  40035-4 0  9996
2 15752  82.9507 287.8338 0023768 192.8338 167.2216 13.73307890 10920
Source of the keplerian elements: AFSPC